Regional Weather Roundup
Issued by NWS

Home | Current Version | Previous Version | Text Only | Print | Product List | Glossary On
Versions: 1 2 3 4 5 6 7 8 9 10 11 12 13 14 15 16 17 18 19 20 21 22 23 24 25 26 27 28 29 30 31 32 33 34 35 36 37 38 39 40 41 42 43 44 45 46 47 48 49 50
000
ASUS43 KDTX 260201
RWRMI
MICHIGAN HOURLY REGIONAL WEATHER ROUNDUP
NATIONAL WEATHER SERVICE DETROIT/PONTIAC MI
1000 PM EDT SAT APR 25 2015

NOTE: "FAIR" INDICATES FEW OR NO CLOUDS BELOW 12,000 FEET WITH NO
SIGNIFICANT WEATHER AND/OR OBSTRUCTION TO VISIBILITY.

MIZ047>049-052>055-059>063-066>070-074>076-081>083-260300-
SOUTHEAST LOWER MICHIGAN

CITY           SKY/WX    TMP DP  RH WIND       PRES   REMARKS
ADRIAN         CLOUDY    43  30  60 E9        29.80R
ALMA           PTCLDY    40  24  53 NE9       29.88S WCI  34
ANN ARBOR      MOCLDY    45  28  51 NE6       29.80R
BAD AXE        CLEAR     35  23  62 N3        29.90S
CARO           PTCLDY    37  27  65 CALM      29.88R
DETROIT CITY   MOCLDY    43  24  47 NE8       29.83R
DETROIT        MOCLDY    47  27  45 NE9       29.81S
FLINT          MOCLDY    45  25  45 NE13      29.85S
GROSSE ILE     MOCLDY    43  28  56 NE12      29.80R
HILLSDALE      CLOUDY    45  33  62 E3        29.79R
HOWELL         MOCLDY    44  24  46 NE9       29.82R

CITY           SKY/WX    TMP DP  RH WIND       PRES   REMARKS
JACKSON        CLOUDY    45  20  36 NE10      29.80R
LAMBERTVILLE   CLOUDY    45  28  53 NE6       29.79R
LANSING        MOCLDY    43  27  53 NE13      29.84R
LAPEER         FAIR      39  25  58 NE8       29.86S WCI  33
MASON          PTCLDY    44  24  45 NE10      29.82R
PONTIAC        CLOUDY    42  25  50 NE14      29.82R
PORT HOPE        N/A     39  26  59 NW7       29.89R WCI  34
PORT HURON     CLEAR     39  27  60 N10G16    29.85S WCI  32
TRI CITIES     PTCLDY    38  27  64 NE8       29.90R WCI  32
MIDLAND        FAIR      39  25  56 N3        29.89S
TROY           MOCLDY    44  25  47 N8G16     29.85R
SAGINAW HB     PTCLDY    37  27  65 N10       29.88S WCI  30
$$
MIZ043>046-050>051-056>058-064>065-071>073-077>080-260300-
SOUTHWEST LOWER MICHIGAN

CITY           SKY/WX    TMP DP  RH WIND       PRES   REMARKS
BATTLE CREEK   MOCLDY    47  28  47 NE10      29.81R
BENTON HARBOR  CLOUDY    42  34  73 CALM      29.82R
BIG RAPIDS     PTCLDY    43  21  42 E9        29.87R
COLDWATER      CLOUDY    45  33  62 CALM      29.79R
FREMONT        MOCLDY    45  17  32 E7        29.85R
HOLLAND        CLOUDY    50  28  42 NE12      29.84R
GRAND RAPIDS   MOCLDY    46  25  43 NE15      29.85R
IONIA          CLOUDY    44  26  50 NE12G20   29.85R
KALAMAZOO      CLOUDY    48  30  49 NE6       29.81R
LUDINGTON      PTCLDY    43  26  51 CALM      29.88R
MARSHALL       CLOUDY    45  27  49 NE3       29.80R
MOUNT PLEASANT PTCLDY    38  23  54 NE5       29.89R WCI  35
MUSKEGON       MOCLDY    50  22  33 E10       29.85R
SOUTH HAVEN    CLOUDY    46  35  65 NE8       29.82R
$$
MIZ016>042-260300-
NORTHERN LOWER MICHIGAN

CITY           SKY/WX    TMP DP  RH WIND       PRES   REMARKS
BEAVER ISLAND  CLEAR     33  23  68 N3        29.96R
BELLAIRE       CLEAR     43  26  52 CALM      29.92S
CADILLAC       CLEAR     42  21  44 E6        29.88R
CHARLEVOIX     CLEAR     43  25  49 N6        29.97R
FRANKFORT      CLEAR     45  17  33 N5        29.90R
GAYLORD        CLEAR     41  23  48 CALM      29.91R
GRAYLING       CLEAR     36  22  56 CALM      29.91R
HARBOR SPRINGS CLEAR     40  24  53 N6        29.94R
HOUGHTON LAKE  CLEAR     38  24  57 CALM      29.90R
MANISTEE       PTCLDY    46  21  36 E8        29.88R
OSCODA         CLEAR     34  23  65 CALM      29.91S
PELLSTON       CLEAR     37  26  64 N3        29.95R
ROGERS CITY    CLOUDY    39  26  58 CALM      29.94R
TRAVERSE CITY  CLEAR     41  30  65 CALM      29.90R
$$
MIZ007>008-015-260300-
EASTERN UPPER MICHIGAN

CITY           SKY/WX    TMP DP  RH WIND       PRES   REMARKS
KINROSS        PTCLDY    36  23  60 NW13      29.94R WCI  27
MACKINAC ISLAN CLEAR     38  22  52 N8        29.95R WCI  32
NEWBERRY       CLEAR     34  22  63 NW5       29.97R WCI  30
S. S. MARIE    MOCLDY    37  23  56 W6        29.94R WCI  32
$$
MIZ004>006-011>014-085-260300-
CENTRAL UPPER MICHIGAN

CITY           SKY/WX    TMP DP  RH WIND       PRES   REMARKS
MANISTIQUE     CLEAR     37  22  54 N7        29.98R WCI  32
ESCANABA       CLEAR     39  18  41 N6        29.98R WCI  35
MENOMINEE      CLEAR     41  19  42 NE8       29.94R
SAWYER-GWINN   CLEAR     32  19  59 N8        29.99R WCI  25
$$
MIZ001>003-009>011-084-260300-
WESTERN UPPER MICHIGAN

CITY           SKY/WX    TMP DP  RH WIND       PRES   REMARKS
IRON MOUNTAIN  CLEAR     40  18  41 NE8       29.96R WCI  34
HOUGHTON       CLEAR     33  20  58 CALM      30.01R
COPPER HARBOR    N/A     32  24  72 W5        30.02S WCI  27
IRONWOOD       CLEAR     37  25  60 CALM      29.98R
$$

ABBREVIATIONS USED IN REMARKS
   TC - TEMPERATURE IN CELSIUS
  WCI - WIND CHILL INDEX
   HX - HEAT INDEX
  VSB - VISIBILITY




USA.gov is the U.S. government's official web portal to all federal, state and local government web resources and services.